Home > Weather > Bogota > Past weeks

Flag for Colombia Weather for the Past 2 Weeks in Bogota, Colombia

Now
61 °F

Passing clouds.


Feels Like: 61 °F
Forecast: 50 / 64 °F
Wind: 7 mph from Southeast

Location: Bogota / Eldorado

Current Time: Feb 7, 2016 at 9:33:16 PM

Latest Report: Feb 7, 2016 at 8:00 PM


Visibility: N/A

Pressure: 30.32 "Hg (22.25 "Hg at 2618m altitude)

Humidity: 59%

Dew point: 46 °F

Location of BogotaLocation

Historic Weather in Bogota — Graph

°F

Bogota Temperature Yesterday

Maximum temperature yesterday: 73 °F (at 2:00 PM)
Minimum temperature yesterday: 43 °F (at 4:00 AM)
Average temperature yesterday: 58 °F

High & Low Weather Summary for the Past Weeks

 TemperatureHumidityPressure
High75 °F (Jan 27, 2:00 PM)100% (Jan 24, 5:00 AM)30.43 "Hg (Jan 24, 5:00 AM)
Low37 °F (Jan 28, 6:00 AM)12% (Jan 27, 1:00 PM)30.22 "Hg (Feb 2, 4:00 PM)
Average58 °F73%30.32 "Hg
* Reported Jan 23 8:00 PM — Feb 7 8:00 PM, Bogota, Weather by CustomWeather, © 2016

Note: Actual official high and low records may vary slightly from our data, if they occured in-between our weather recording intervals... More about our weather records

Advertising

Bogota Weather History for the Previous 24 Hours

 ConditionsComfort  
Time TempWeatherWind HumidityBarometerVisibility
8:00 PM
Sun, Feb 7
61 °FPassing clouds.7 mph59%30.32 "HgN/A
7:00 PM63 °FPassing clouds.8 mph59%30.30 "HgN/A
6:00 PM64 °FScattered showers. Scattered clouds.9 mph56%30.26 "HgN/A
5:00 PM64 °FScattered clouds.10 mph56%30.25 "HgN/A
4:00 PM66 °FPartly sunny.5 mph52%30.24 "HgN/A
3:00 PM64 °FPartly sunny.14 mph56%30.26 "HgN/A
2:00 PM68 °FScattered showers. Partly sunny.9 mph46%30.27 "HgN/A
1:00 PM68 °FPartly sunny.12 mph46%30.30 "HgN/A
12:00 PM66 °FPartly sunny.12 mph49%30.33 "HgN/A
11:00 AM64 °FPartly sunny.6 mph56%30.36 "HgN/A
10:00 AM64 °FPartly sunny.7 mph52%30.37 "HgN/A
9:00 AM61 °FPartly sunny.3 mph68%30.37 "HgN/A
8:00 AM57 °FScattered clouds.7 mph77%30.37 "HgN/A
7:00 AM52 °FPartly sunny.7 mph88%30.34 "HgN/A
6:00 AM50 °FScattered showers. Partly cloudy.6 mph88%30.33 "HgN/A
5:00 AM52 °FScattered showers. Passing clouds.3 mph88%30.32 "HgN/A
4:00 AM48 °FPassing clouds.3 mph94%30.32 "HgN/A
3:00 AM52 °FPassing clouds.5 mph88%30.32 "HgN/A
2:00 AM50 °FPassing clouds.5 mph94%30.34 "HgN/A
1:00 AM52 °FPassing clouds.3 mph88%30.37 "HgN/A
12:00 AM52 °FPassing clouds.6 mph88%30.38 "HgN/A
11:00 PM
Sat, Feb 6
54 °FPassing clouds.6 mph77%30.40 "HgN/A
10:00 PM55 °FPassing clouds.5 mph72%30.40 "HgN/A
9:00 PM59 °FPassing clouds.3 mph63%30.37 "HgN/A
Weather by CustomWeather, © 2016

See weather overviewHow to use our weather pages